When you browse on this site, cookies collect data to enhance your experience and personalize the content and advertising you see.
Visit our Privacy Policy to learn more. By continuing to use the site, you agree to this use of cookies and data.

Météo par heure à Tonton

Ce jour, 12 Août, Mercredi

Heure Température Précipitation Vent Pression Humidité
00:00 +21°C° 0 mm 1 m/s 758 mmHg 89%
01:00 +21°C° 0 mm 1 m/s 758 mmHg 89%
02:00 +21°C° 0 mm 1 m/s 758 mmHg 90%
03:00 +21°C° 0 mm 1 m/s 757 mmHg 91%
04:00 +21°C° 0.1 mm 1 m/s 757 mmHg 91%
05:00 +21°C° 0.1 mm 1 m/s 757 mmHg 92%
06:00 +20°C° 0 mm 0 m/s 758 mmHg 89%
07:00 +23°C° 0.1 mm 1 m/s 757 mmHg 83%
08:00 +25°C° 0.1 mm 2 m/s 757 mmHg 77%
09:00 +26°C° 0.1 mm 2 m/s 757 mmHg 71%
10:00 +28°C° 0 mm 2 m/s 757 mmHg 66%
11:00 +29°C° 0 mm 3 m/s 757 mmHg 61%
12:00 +30°C° 0 mm 2 m/s 758 mmHg 56%
13:00 +31°C° 0 mm 2 m/s 757 mmHg 55%
14:00 +31°C° 0 mm 2 m/s 757 mmHg 54%
15:00 +31°C° 0 mm 2 m/s 756 mmHg 54%
16:00 +29°C° 0.5 mm 3 m/s 756 mmHg 61%
17:00 +28°C° 0.5 mm 3 m/s 756 mmHg 67%
18:00 +26°C° 0.5 mm 4 m/s 756 mmHg 74%
19:00 +24°C° 0.4 mm 3 m/s 756 mmHg 81%
20:00 +23°C° 0.4 mm 2 m/s 757 mmHg 87%
21:00 +21°C° 0.4 mm 1 m/s 757 mmHg 93%
22:00 +20°C° 0 mm 2 m/s 757 mmHg 93%
23:00 +20°C° 0 mm 2 m/s 757 mmHg 93%

Demain, 13 Août, Jeudi

Heure Température Précipitation Vent Pression Humidité
00:00 +20°C° 0 mm 2 m/s 757 mmHg 93%
01:00 +21°C° 0.1 mm 1 m/s 756 mmHg 93%
02:00 +21°C° 0.1 mm 1 m/s 756 mmHg 94%
03:00 +21°C° 0.1 mm 1 m/s 756 mmHg 94%
04:00 +21°C° 0.2 mm 1 m/s 756 mmHg 94%
05:00 +21°C° 0.2 mm 1 m/s 756 mmHg 93%
06:00 +21°C° 0.2 mm 1 m/s 756 mmHg 93%
07:00 +22°C° 0.1 mm 1 m/s 756 mmHg 89%
08:00 +23°C° 0.1 mm 1 m/s 757 mmHg 85%
09:00 +24°C° 0.1 mm 1 m/s 757 mmHg 81%
10:00 +25°C° 0 mm 2 m/s 757 mmHg 77%
11:00 +26°C° 0 mm 2 m/s 757 mmHg 73%
12:00 +27°C° 0 mm 2 m/s 757 mmHg 70%
13:00 +27°C° 0.5 mm 2 m/s 757 mmHg 70%
14:00 +27°C° 0.5 mm 2 m/s 756 mmHg 70%
15:00 +27°C° 0.5 mm 2 m/s 756 mmHg 71%
16:00 +26°C° 2 mm 2 m/s 756 mmHg 76%
17:00 +25°C° 2 mm 2 m/s 756 mmHg 81%
18:00 +24°C° 2 mm 2 m/s 756 mmHg 86%
19:00 +24°C° 1.3 mm 2 m/s 756 mmHg 89%
20:00 +23°C° 1.3 mm 2 m/s 757 mmHg 91%
21:00 +21°C° 1.3 mm 2 m/s 757 mmHg 93%
22:00 +21°C° 0.6 mm 2 m/s 757 mmHg 94%
23:00 +20°C° 0.6 mm 2 m/s 757 mmHg 95%

Après-demain, 14 Août, Vendredi

Heure Température Précipitation Vent Pression Humidité
00:00 +20°C° 0.6 mm 2 m/s 757 mmHg 96%
01:00 +20°C° 0.6 mm 2 m/s 757 mmHg 96%
02:00 +20°C° 0.6 mm 2 m/s 757 mmHg 96%
03:00 +20°C° 0.6 mm 2 m/s 757 mmHg 97%
04:00 +20°C° 0.1 mm 2 m/s 757 mmHg 97%
05:00 +19°C° 0.1 mm 2 m/s 757 mmHg 96%
06:00 +19°C° 0.1 mm 2 m/s 757 mmHg 96%
07:00 +19°C° 0.1 mm 2 m/s 757 mmHg 95%
08:00 +20°C° 0.1 mm 2 m/s 757 mmHg 94%
09:00 +20°C° 0.1 mm 2 m/s 758 mmHg 93%
10:00 +20°C° 0.4 mm 2 m/s 758 mmHg 92%
11:00 +20°C° 0.4 mm 2 m/s 758 mmHg 92%
12:00 +20°C° 0.4 mm 2 m/s 758 mmHg 92%
13:00 +20°C° 0.6 mm 2 m/s 758 mmHg 92%
14:00 +20°C° 0.6 mm 2 m/s 758 mmHg 93%
15:00 +20°C° 0.6 mm 2 m/s 759 mmHg 93%
16:00 +20°C° 0.5 mm 2 m/s 759 mmHg 94%
17:00 +20°C° 0.5 mm 2 m/s 758 mmHg 94%
18:00 +19°C° 0.5 mm 2 m/s 758 mmHg 95%
19:00 +19°C° 0.2 mm 3 m/s 759 mmHg 95%
20:00 +19°C° 0.2 mm 3 m/s 759 mmHg 96%
21:00 +18°C° 0.2 mm 3 m/s 759 mmHg 97%
22:00 +18°C° 0.1 mm 3 m/s 759 mmHg 97%
23:00 +18°C° 0.1 mm 3 m/s 759 mmHg 97%

15 Août, Samedi

Heure Température Précipitation Vent Pression Humidité
00:00 +17°C° 0.1 mm 3 m/s 759 mmHg 96%
01:00 +17°C° 0 mm 3 m/s 759 mmHg 96%
02:00 +17°C° 0 mm 3 m/s 759 mmHg 96%
03:00 +17°C° 0 mm 2 m/s 759 mmHg 96%
04:00 +17°C° 0 mm 2 m/s 759 mmHg 95%
05:00 +17°C° 0 mm 2 m/s 759 mmHg 95%
06:00 +17°C° 0 mm 2 m/s 758 mmHg 94%
07:00 +18°C° 0 mm 2 m/s 759 mmHg 92%
08:00 +19°C° 0 mm 2 m/s 759 mmHg 90%
09:00 +19°C° 0 mm 2 m/s 759 mmHg 87%
10:00 +20°C° 0 mm 2 m/s 759 mmHg 85%
11:00 +21°C° 0 mm 2 m/s 759 mmHg 83%
12:00 +21°C° 0 mm 2 m/s 759 mmHg 81%
13:00 +23°C° 0 mm 2 m/s 759 mmHg 79%
14:00 +23°C° 0 mm 2 m/s 759 mmHg 78%
15:00 +23°C° 0 mm 2 m/s 758 mmHg 76%
16:00 +23°C° 0 mm 2 m/s 758 mmHg 78%
17:00 +21°C° 0 mm 2 m/s 758 mmHg 80%
18:00 +21°C° 0 mm 2 m/s 758 mmHg 81%
19:00 +20°C° 0 mm 2 m/s 758 mmHg 85%
20:00 +18°C° 0 mm 2 m/s 758 mmHg 88%
21:00 +17°C° 0 mm 2 m/s 758 mmHg 92%
22:00 +17°C° 0 mm 2 m/s 758 mmHg 92%
23:00 +17°C° 0 mm 2 m/s 757 mmHg 92%

16 Août, Dimanche

Heure Température Précipitation Vent Pression Humidité
00:00 +16°C° 0 mm 2 m/s 757 mmHg 92%
01:00 +16°C° 0 mm 1 m/s 757 mmHg 92%
02:00 +16°C° 0 mm 1 m/s 756 mmHg 92%
03:00 +16°C° 0 mm 1 m/s 756 mmHg 92%
04:00 +16°C° 0.1 mm 1 m/s 756 mmHg 93%
05:00 +16°C° 0.1 mm 1 m/s 756 mmHg 94%
06:00 +16°C° 0.1 mm 0 m/s 756 mmHg 94%
07:00 +19°C° 0 mm 1 m/s 756 mmHg 89%
08:00 +21°C° 0 mm 1 m/s 756 mmHg 84%
09:00 +23°C° 0 mm 1 m/s 756 mmHg 78%
10:00 +23°C° 1 mm 1 m/s 756 mmHg 77%
11:00 +23°C° 1 mm 2 m/s 756 mmHg 76%
12:00 +24°C° 1 mm 2 m/s 756 mmHg 74%
13:00 +24°C° 1 mm 2 m/s 755 mmHg 75%
14:00 +24°C° 1 mm 3 m/s 755 mmHg 76%
15:00 +22°C° 1 mm 3 m/s 755 mmHg 77%
16:00 +22°C° 0.4 mm 3 m/s 755 mmHg 80%
17:00 +21°C° 0.4 mm 3 m/s 755 mmHg 83%
18:00 +20°C° 0.4 mm 3 m/s 755 mmHg 86%
19:00 +19°C° 0 mm 3 m/s 755 mmHg 88%
20:00 +18°C° 0 mm 3 m/s 755 mmHg 90%
21:00 +17°C° 0 mm 2 m/s 755 mmHg 92%
22:00 +16°C° 0 mm 2 m/s 755 mmHg 92%
23:00 +16°C° 0 mm 2 m/s 755 mmHg 92%

17 Août, Lundi

Heure Température Précipitation Vent Pression Humidité
00:00 +15°C° 0 mm 2 m/s 754 mmHg 92%
01:00 +15°C° 0 mm 2 m/s 754 mmHg 93%
02:00 +15°C° 0 mm 2 m/s 754 mmHg 94%
03:00 +15°C° 0 mm 2 m/s 754 mmHg 94%
04:00 +15°C° 0 mm 2 m/s 754 mmHg 95%
05:00 +15°C° 0 mm 2 m/s 754 mmHg 97%
06:00 +16°C° 0 mm 2 m/s 753 mmHg 98%
07:00 +17°C° 0.1 mm 3 m/s 754 mmHg 92%
08:00 +19°C° 0.1 mm 4 m/s 754 mmHg 87%
09:00 +20°C° 0.1 mm 5 m/s 754 mmHg 82%
10:00 +20°C° 0.4 mm 5 m/s 754 mmHg 79%
11:00 +21°C° 0.4 mm 6 m/s 753 mmHg 77%
12:00 +21°C° 0.4 mm 6 m/s 753 mmHg 74%
13:00 +21°C° 0.3 mm 6 m/s 753 mmHg 74%
14:00 +21°C° 0.3 mm 5 m/s 753 mmHg 75%
15:00 +21°C° 0.3 mm 5 m/s 753 mmHg 75%
16:00 +21°C° 0.4 mm 5 m/s 753 mmHg 78%
17:00 +20°C° 0.4 mm 4 m/s 753 mmHg 81%
18:00 +20°C° 0.4 mm 4 m/s 753 mmHg 84%
19:00 +18°C° 0.1 mm 4 m/s 753 mmHg 88%
20:00 +17°C° 0.1 mm 4 m/s 754 mmHg 91%
21:00 +15°C° 0.1 mm 4 m/s 754 mmHg 94%
22:00 +14°C° 0 mm 4 m/s 754 mmHg 94%
23:00 +14°C° 0 mm 4 m/s 754 mmHg 95%
Voir plus